Location: Newark
(48.8833°N, 0.9236°W)
Time: 06:18:34
(UTC+00:00)

Transit 4A - Pass Details

Date: 23 November 2019
Orbit: 870 x 975 km, 66.8° (Epoch: 09 December)

Event Time Altitude Azimuth Distance (km) Brightness Sun altitude
Exits shadow 02:28:56 11° 43° (NE) 2,494 10.6 -47.3°
Drops below altitude 10° 02:29:17 10° 46° (NE) 2,560 10.7 -47.3°
Sets 02:32:59 0° 69° (ENE) 3,482 11.6 -46.7°
